GPS BIIR-2 (PRN 13) 1 24876U 97035A 25349.72415057 -.00000018 00000+0 00000+0 0 9993 2 24876 55.8966 105.7521 0096780 56.9888 303.9092 2.00563690208279 GPS BIIR-4 (PRN 20) 1 26360U 00025A 25350.10519309 -.00000087 00000+0 00000+0 0 9991 2 26360 55.0472 26.7017 0038881 242.3164 125.7011 2.00567527187608 GPS BIIR-5 (PRN 22) 1 26407U 00040A 25350.05734115 .00000059 00000+0 00000+0 0 9996 2 26407 54.8900 222.4370 0125835 301.8664 231.2239 2.00568075186278 GPS BIIR-8 (PRN 16) 1 27663U 03005A 25349.64412049 .00000055 00000+0 00000+0 0 9993 2 27663 54.9227 222.2628 0147572 51.8406 318.7887 2.00570814167631 GPS BIIR-11 (PRN 19) 1 28190U 04009A 25348.65957574 -.00000079 00000+0 00000+0 0 9998 2 28190 54.9839 283.1415 0108364 167.6892 10.6801 2.00560762159240 GPS BIIR-13 (PRN 02) 1 28474U 04045A 25349.37192497 -.00000091 00000+0 00000+0 0 9992 2 28474 55.2393 332.2998 0170817 309.3676 83.5283 2.00569721154740 GPS BIIRM-1 (PRN 17) 1 28874U 05038A 25349.89070876 -.00000068 00000+0 00000+0 0 9996 2 28874 55.0291 280.5740 0131555 293.6034 72.8859 2.00578274148160 GPS BIIRM-2 (PRN 31) 1 29486U 06042A 25349.76860613 .00000095 00000+0 00000+0 0 9993 2 29486 54.6945 158.6205 0107339 52.0304 129.1611 2.00554080140716 GPS BIIRM-3 (PRN 12) 1 29601U 06052A 25349.93760263 .00000060 00000+0 00000+0 0 9994 2 29601 54.9699 221.2713 0087826 87.4673 273.6251 2.00573827139739 GPS BIIRM-4 (PRN 15) 1 32260U 07047A 25350.24352666 -.00000055 00000+0 00000+0 0 9999 2 32260 53.9575 87.6137 0164058 85.2876 276.5730 2.00564422133148 GPS BIIRM-5 (PRN 29) 1 32384U 07062A 25350.30172140 -.00000066 00000+0 00000+0 0 9999 2 32384 55.1791 281.5031 0032245 162.3169 10.9325 2.00577559131841 GPS BIIRM-6 (PRN 07) 1 32711U 08012A 25349.66523615 .00000093 00000+0 00000+0 0 9992 2 32711 54.4774 157.2561 0202565 244.9811 112.9132 2.00565798130075 GPS BIIRM-8 (PRN 05) 1 35752U 09043A 25349.93057994 -.00000086 00000+0 00000+0 0 9990 2 35752 56.0932 34.6571 0051718 81.8462 127.6063 2.00565586119683 GPS BIIF-1 (PRN 25) 1 36585U 10022A 25350.04262597 .00000072 00000+0 00000+0 0 9999 2 36585 54.2996 215.9407 0126256 65.1133 343.5127 2.00553454113922 GPS BIIF-3 (PRN 24) 1 38833U 12053A 25349.84260213 .00000080 00000+0 00000+0 0 9991 2 38833 53.5583 151.1115 0175924 64.0399 297.7616 2.00565066 95765 GPS BIIF-4 (PRN 27) 1 39166U 13023A 25349.20803023 -.00000068 00000+0 00000+0 0 9998 2 39166 54.6500 276.4679 0137852 48.4851 312.7012 2.00564736 92194 GPS BIIF-5 (PRN 30) 1 39533U 14008A 25350.19899491 .00000087 00000+0 00000+0 0 9994 2 39533 53.6318 156.7835 0079315 226.5644 132.7818 2.00574644 86017 GPS BIIF-6 (PRN 06) 1 39741U 14026A 25349.98399070 -.00000087 00000+0 00000+0 0 9999 2 39741 56.5823 338.6501 0039267 318.8752 40.8399 2.00561228 84867 GPS BIIF-7 (PRN 09) 1 40105U 14045A 25346.08285724 -.00000009 00000+0 00000+0 0 9998 2 40105 55.2287 95.9251 0032694 119.8618 240.4523 2.00572516 82323 GPS BIIF-8 (PRN 03) 1 40294U 14068A 25349.45074555 -.00000088 00000+0 00000+0 0 9991 2 40294 56.8599 38.0411 0060776 69.1257 291.5793 2.00565070 81523 GPS BIIF-9 (PRN 26) 1 40534U 15013A 25349.58071064 .00000073 00000+0 00000+0 0 9998 2 40534 53.1973 211.7725 0107171 38.5497 322.2983 2.00562492 78143 GPS BIIF-10 (PRN 08) 1 40730U 15033A 25349.74197793 -.00000061 00000+0 00000+0 0 9992 2 40730 54.1280 274.6493 0111161 26.8812 333.7061 2.00565528 76312 GPS BIIF-11 (PRN 10) 1 41019U 15062A 25346.80991915 -.00000096 00000+0 00000+0 0 9995 2 41019 56.8322 37.9995 0110843 229.9503 129.1214 2.00567164 74093 GPS BIIF-12 (PRN 32) 1 41328U 16007A 25348.38819472 -.00000029 00000+0 00000+0 0 9996 2 41328 55.4071 96.7915 0092232 243.6085 115.4276 2.00560678 72138 GPS BIII-1 (PRN 04) 1 43873U 18109A 25349.77053800 -.00000032 00000+0 00000+0 0 9991 2 43873 55.5688 99.4273 0037435 195.1450 336.5518 2.00553802 51399 GPS BIII-2 (PRN 18) 1 44506U 19056A 25349.41422042 -.00000089 00000+0 00000+0 0 9998 2 44506 55.7205 338.4461 0057712 198.4931 333.0203 2.00566523 46385 GPS BIII-3 (PRN 23) 1 45854U 20041A 25349.03284308 -.00000091 00000+0 00000+0 0 9993 2 45854 56.5486 36.0960 0060556 203.5023 356.6699 2.00562009 40342 GPS BIII-4 (PRN 14) 1 46826U 20078A 25350.02880646 .00000066 00000+0 00000+0 0 9992 2 46826 54.0145 218.2075 0064749 203.3739 326.9917 2.00566889 37831 GPS BIII-5 (PRN 11) 1 48859U 21054A 25342.17676416 -.00000086 00000+0 00000+0 0 9993 2 48859 55.2581 340.1367 0024678 233.3994 212.8593 2.00553627 32922 GPS BIII-6 (PRN 28) 1 55268U 23009A 25347.52572941 .00000100 00000+0 00000+0 0 9995 2 55268 55.1051 155.8142 0003711 357.4368 33.2544 2.00555696 21528 GPS BIII-7 (PRN 01) 1 62339U 24242A 25349.36940626 -.00000091 00000+0 00000+0 0 9995 2 62339 54.9228 341.6333 0012395 345.2723 14.1201 2.00568090 7561 GPS BIII-8 (PRN 21) 1 64202U 25116A 25348.11543580 -.00000096 00000+0 00000+0 0 9992 2 64202 55.1067 38.5851 0005615 308.1470 55.2369 2.00558299 4161